Location: Unspecified
(0.0000°N, 0.0000°E)
Time: 02:34:27
(UTC+00:00)

ACS3 Solar Sail - Pass Details

Date: 16 November 2025
Orbit: 887 x 1000 km, 97.3° (Epoch: 14 December)

Event Time Altitude Azimuth Distance (km) Brightness Sun altitude
Exits shadow 03:04:52 15° 187° (S) 2,423 4.0 -37.5°
Drops below altitude 10° 03:05:48 10° 188° (S) 2,777 4.3 -37.2°
Sets 03:08:19 0° 189° (S) 3,737 5.0 -36.7°
